Regional Weather Roundup
Issued by NWS Kansas City/Pleasant Hill, MO

Home | Current Version | Previous Version | Graphics & Text | Print | Product List | Glossary Off
Versions: 1 2 3 4 5 6 7 8 9 10 11 12 13 14 15 16 17 18 19 20 21 22 23 24 25 26 27 28 29 30 31 32 33 34 35 36 37 38 39 40 41 42 43 44 45 46 47 48 49 50

000
ASUS43 KEAX 221910
RWREAX

WEATHER ROUNDUP FOR EASTERN KANSAS AND NORTHWEST MISSOURI
NATIONAL WEATHER SERVICE KANSAS CITY/PLEASANT HILL MO
200 PM CDT SAT APR 22 2017

KSZ040-057-103>105-MOZ028-029-037-043-222000-
...KANSAS CITY METROPOLITAN AREA...

CITY           SKY/WX    TMP DP  RH WIND       PRES   REMARKS
K.C. INTL      MOSUNNY   64  34  32 NE13G29   30.14F
K.C. DOWNTOWN  SUNNY     66  33  29 NE18G26   30.11F
LEES SUMMIT    PTSUNNY   63  26  24 NE15G29   30.11F
OLATHE - IXD   SUNNY     63  33  32 N20G29    30.12F
OLATHE - OJC   SUNNY     62  31  31 NE15G23   30.12F
LAWRENCE       SUNNY     65  34  31 NE22G31   30.14F

$$

MOZ001>008-011>017-020>025-030>033-038>040-044>046-053-054-222000-
...NORTHERN AND CENTRAL MISSOURI...

CITY           SKY/WX    TMP DP  RH WIND       PRES   REMARKS
ST. JOSEPH     MOSUNNY   63  36  36 NE20G28   30.18F
MOSBY          CLEAR     63  28  27 NE13      30.13F
WHITEMAN AFB   MOSUNNY   61  37  41 NE13G22   30.07F
CLINTON        CLOUDY    55  39  54 NE17G23   30.09F
SEDALIA        NOT AVBL
WARSAW         NOT AVBL
CHILLICOTHE      N/A     65  30  27 N14G26    30.15F
KIRKSVILLE     SUNNY     63  35  35 NE18G25   30.15F

$$

MOZ041-047>049-056>058-063>065-088>090-097-222000-
...EASTERN AND SOUTHERN MISSOURI...

CITY           SKY/WX    TMP DP  RH WIND       PRES   REMARKS
ST. LOUIS INTL CLOUDY    56  38  50 NE15G28   30.07F
SPIRIT OF STL  CLOUDY    56  41  57 N18       30.07S
COLUMBIA       CLOUDY    59  39  47 NE18G25   30.09F
JEFFERSON CITY CLOUDY    57  37  47 N14       30.09S
ROLLA          LGT RAIN  48  44  86 NE6       30.05S
OSAGE BEACH    CLOUDY    54  40  59 N9G18     30.08S
SPRINGFIELD    CLOUDY    47  44  90 N12       30.05R FOG
BRANSON        LGT RAIN  46  46 100 N6        30.03S FOG
JOPLIN         CLOUDY    49  42  77 N18       30.09F
WEST PLAINS    CLOUDY    49  46  90 NE10G18   30.01R FOG

$$

IAZ060-094-KSZ022-034>040-054-083-096-NEZ052-066-093-222000-
...KANSAS...SOUTHEAST NEBRASKA AND IOWA...

CITY           SKY/WX    TMP DP  RH WIND       PRES   REMARKS
TOPEKA         MOSUNNY   64  38  38 NE18G25   30.15F
MANHATTAN      MOSUNNY   63  36  36 NE16G24   30.19F
EMPORIA        CLOUDY    59  37  44 N15G24    30.15F
CHANUTE        CLOUDY    55  39  54 N14       30.12F
WICHITA        CLOUDY    57  37  47 N17       30.19F
OMAHA          PTSUNNY   65  30  27 NE10      30.23F
LINCOLN        SUNNY     64  32  30 N10       30.25F
FALLS CITY     SUNNY     61  37  41 NE12G20   30.18F
LAMONI         CLOUDY    62  35  36 NE15G21   30.19F
DES MOINES     PTSUNNY   65  28  24 NE10G17   30.21F

$$




USA.gov is the U.S. government's official web portal to all federal, state and local government web resources and services.